[[{"header":{"parameterUnit":"m.s-1","parameterCategory":1,"la1":30.2991,"la2":30.254,"lo1":-89.0895,"lo2":-89.0444,"dy":0.0017,"dx":0.0017,"nx":28,"ny":28,"refTime":"2024-06-30T03:00:00:Z","depth":0,"parameterNumber":2,"parameterNumberName":"U-component_of_WINDS"},"data":[0,0,0,0,0,0,0,0,0,0,0,0,0,0,0,0,0,0,0,0,0,0,0,0,0,0,0,0,0,0,0,0,0,0,0,0,0,0,0,0,0,0,0,0,0,0,0,0,0,0,0,0,0,0,0,0,0,0,1.9338,1.9339,0,1.9447,1.9448,1.9449,1.9454,1.9453,1.9452,1.9451,1.9561,1.9565,1.957,0,0,0,0,0,0,0,0,0,0,0,0,0,1.9134,1.9138,1.9338,1.9339,1.9341,1.9447,1.9448,1.9449,1.9455,1.9453,1.9451,1.945,1.956,1.9565,1.957,0,0,0,0,0,0,0,0,0,0,0,0,0,1.9231,1.9139,1.9338,1.9356,1.9359,1.9446,1.9448,1.945,1.9455,1.9453,1.9451,1.9449,1.9558,1.9565,1.9571,1.9647,0,0,1.959,1.9592,0,0,0,0,0,0,0,0,1.9225,1.9238,1.9352,1.9355,1.9358,1.9435,1.9417,1.9516,1.9455,1.9418,1.945,1.9448,1.9521,1.953,1.9555,1.9652,1.9657,1.959,1.9594,1.9597,1.9598,0,0,0,0,0,0,0,1.9219,1.9234,1.9381,1.9353,1.9357,1.9359,1.937,1.9436,1.9479,1.9421,1.9422,1.9435,1.9522,1.9549,1.9557,1.9659,1.959,1.9596,1.9599,1.9602,1.9825,1.9828,0,0,0,0,0,0,1.9209,1.9228,1.9377,1.9384,1.9286,1.9364,1.9377,1.9412,1.9478,1.9487,1.9436,1.9435,1.9539,1.955,1.9561,1.9655,1.9597,1.9602,1.9606,1.9823,1.9826,1.9828,0,0,0,0,0,0,1.9204,1.9222,1.9373,1.9306,1.9326,1.9369,1.9409,1.9415,1.9442,1.949,1.9497,1.9455,1.9538,1.9552,1.9626,1.9659,1.9605,1.9611,1.9821,1.9824,1.9827,1.9844,0,0,0,0,0,0,1.9198,1.922,1.925,1.9307,1.9329,1.9436,1.9411,1.9419,1.9453,1.9451,1.951,1.9517,1.9538,1.9617,1.9632,1.9667,1.9616,1.9818,1.9822,1.9826,1.984,1.9847,1.9853,0,0,0,0,0,1.9191,1.925,1.9251,1.9269,1.9367,1.9438,1.945,1.9473,1.9455,1.9485,1.9516,1.9515,1.9653,1.9624,1.9642,1.9678,1.9816,1.9821,1.9826,1.9837,1.9846,1.9853,0,0,0,0,0,0,1.9195,1.9258,1.926,1.9339,1.9383,1.9438,1.9477,1.9481,1.9531,1.9527,1.9553,1.9566,1.9639,1.9666,1.9633,1.9756,1.9733,1.9741,1.9735,1.9744,1.975,1.9741,1.9621,0,0,0,0,0,1.9205,1.9257,1.9309,1.9374,1.9396,1.9433,1.9464,1.9478,1.9524,1.9543,1.9579,1.9624,1.9678,1.9713,1.9764,1.9845,1.9857,1.9879,1.9885,1.989,1.9897,1.9941,1.9952,1.9845,1.9845,1.9845,0,0,1.9226,1.9267,1.9298,1.9376,1.9412,1.9465,1.9448,1.9506,1.9545,1.9552,1.9623,1.9652,1.9704,1.9781,1.9817,1.9806,1.993,1.9897,1.99,1.9904,1.9948,1.9958,1.9967,1.9848,1.9847,1.9847,0,0,1.9292,1.9328,1.9386,1.9422,1.9477,1.9501,1.9515,1.9571,1.959,1.9662,1.9668,1.9716,1.9808,1.9844,1.9875,1.9956,1.9958,1.9973,2.0005,2.0048,2.0057,2.0064,2.0093,2.0102,1.998,1.998,1.998,0,1.9311,1.9392,1.9415,1.9473,1.9507,1.9515,1.9574,1.9608,1.9677,1.97,1.9688,1.9803,1.9839,1.9925,1.9945,1.997,1.9986,1.9965,2.0054,2.0061,2.0069,2.0096,2.0107,1.9981,1.9981,1.9981,1.9981,0,1.9413,1.9469,1.9509,1.9575,1.9614,1.9672,1.9704,1.9741,1.9751,1.9777,1.985,1.9894,1.9955,1.9976,1.9987,2.0064,2.0056,2.0048,2.0024,2.008,2.0106,2.0117,1.9983,1.9983,1.9982,1.9982,0,0,1.9482,1.9562,1.9576,1.9606,1.9668,1.9711,1.977,1.983,1.986,1.9908,1.9957,2.0035,2.0029,2.0064,2.0079,2.0117,2.0178,2.0105,2.0106,2.0116,2.0265,2.027,2.0281,2.018,2.0182,2.0184,2.0261,0,1.9554,1.9658,1.9681,1.9771,1.9823,1.9833,1.9884,1.9927,1.9953,2.0001,2.0029,2.0084,2.0072,2.0093,2.0131,2.0162,2.0208,2.0157,2.0226,2.0228,2.0211,2.0295,2.03,2.037,2.0271,2.0273,2.0274,0,1.9651,1.9701,1.9796,1.9851,1.9874,1.9919,1.9976,2.0022,2.0071,2.0088,2.0127,2.0139,2.02,2.0174,2.0259,2.0224,2.0254,2.0274,2.0277,2.0283,2.0253,2.0303,2.0394,2.0404,2.029,2.0289,2.0288,0,1.9692,1.9783,1.9851,1.9877,1.9943,1.9975,2.0004,2.0051,2.0086,2.0136,2.0159,2.0215,2.0246,2.029,2.0316,2.0295,2.0399,2.0375,2.0413,2.0413,2.0434,2.0432,2.0529,2.0455,2.0454,2.0454,2.0454,0,1.9769,1.9826,1.987,1.9912,1.9977,2.0004,2.0067,2.0096,2.0139,2.0186,2.0199,2.0243,2.0276,2.0325,2.0347,2.0413,2.0428,2.0442,2.0447,2.044,2.0438,2.0459,2.0454,2.0457,2.0456,2.0456,2.0455,0,1.9824,1.9856,1.9931,1.9988,2.0004,2.0049,2.0097,2.0139,2.0165,2.0226,2.0241,2.0283,2.0342,2.0373,2.0446,2.0461,2.0535,2.0538,2.0518,2.052,2.0556,2.0552,2.0669,2.0686,2.0601,2.0602,2.0603,0,1.9871,1.9915,1.9977,2.001,2.0039,2.0092,2.0128,2.0156,2.0193,2.0253,2.0287,2.0347,2.0395,2.0489,2.0526,2.0582,2.0585,2.0623,2.0594,2.0586,2.0585,2.0581,2.0586,2.0627,2.0628,2.0629,2.0629,0,1.995,1.9964,2.0014,2.0071,2.0113,2.0159,2.0205,2.0231,2.0267,2.0307,2.0367,2.0406,2.0481,2.054,2.0599,2.0629,2.0635,2.0638,2.065,2.0643,2.063,2.0637,2.0531,2.0635,2.0635,2.0634,2.0634,2.0634,2.0002,2.0041,2.0091,2.0147,2.0185,2.0227,2.0269,2.0301,2.0351,2.0415,2.0429,2.0492,2.0541,2.0622,2.0654,2.0704,2.0696,2.0713,2.0717,2.0721,2.0722,2.0623,2.0715,2.0715,2.0715,2.0714,2.0714,0,2.008,2.0113,2.0165,2.0228,2.0272,2.0275,2.0326,2.0363,2.0418,2.0464,2.0512,2.0581,2.0638,2.068,2.0739,2.0771,2.0775,2.0785,2.0782,2.0789,2.0726,2.0709,2.0781,2.0781,2.0781,2.0781,2.0781,2.0781,2.0126,2.0194,2.0214,2.03,2.0333,2.0395,2.0424,2.0463,2.0499,2.0576,2.0624,2.0651,2.0695,2.0757,2.0809,2.082,2.0841,2.085,2.0861,2.0801,2.0794,2.0787,2.0772,2.0855,2.0855,2.0921,2.0921,2.0922]},{"header":{"parameterUnit":"m.s-1","parameterCategory":1,"la1":30.2991,"la2":30.254,"lo1":-89.0895,"lo2":-89.0444,"dy":0.0017,"dx":0.0017,"nx":28,"ny":28,"refTime":"2024-06-30T03:00:00:Z","depth":0,"parameterNumber":3,"parameterNumberName":"V-component_of_WINDS"},"data":[0,0,0,0,0,0,0,0,0,0,0,0,0,0,0,0,0,0,0,0,0,0,0,0,0,0,0,0,0,0,0,0,0,0,0,0,0,0,0,0,0,0,0,0,0,0,0,0,0,0,0,0,0,0,0,0,0,0,-1.2956,-1.2956,0,-1.3,-1.3001,-1.3001,-1.2994,-1.2993,-1.2992,-1.2991,-1.3037,-1.3039,-1.304,0,0,0,0,0,0,0,0,0,0,0,0,0,-1.2862,-1.2864,-1.2955,-1.2956,-1.2957,-1.3,-1.3001,-1.3002,-1.2994,-1.2993,-1.2992,-1.2991,-1.3036,-1.3038,-1.3041,0,0,0,0,0,0,0,0,0,0,0,0,0,-1.2905,-1.2865,-1.2955,-1.2958,-1.2959,-1.3,-1.3001,-1.3002,-1.2994,-1.2993,-1.2992,-1.2991,-1.3035,-1.3038,-1.3041,-1.3082,0,0,-1.305,-1.3051,0,0,0,0,0,0,0,0,-1.2902,-1.2908,-1.2957,-1.2958,-1.2959,-1.299,-1.2985,-1.3029,-1.2994,-1.2981,-1.2991,-1.299,-1.3022,-1.3026,-1.3037,-1.3085,-1.3086,-1.305,-1.3052,-1.3053,-1.3054,0,0,0,0,0,0,0,-1.2899,-1.2906,-1.2973,-1.2958,-1.2959,-1.2957,-1.2961,-1.2993,-1.3007,-1.2982,-1.2981,-1.2987,-1.3022,-1.3034,-1.3038,-1.3087,-1.305,-1.3053,-1.3054,-1.3055,-1.317,-1.3172,0,0,0,0,0,0,-1.2896,-1.2904,-1.2972,-1.2975,-1.2927,-1.2959,-1.2965,-1.2981,-1.3007,-1.301,-1.2988,-1.2986,-1.303,-1.3035,-1.304,-1.3089,-1.3053,-1.3056,-1.3057,-1.3169,-1.3171,-1.3172,0,0,0,0,0,0,-1.2894,-1.2902,-1.297,-1.2939,-1.2948,-1.2962,-1.2981,-1.2983,-1.2995,-1.3012,-1.3014,-1.2997,-1.3029,-1.3035,-1.3072,-1.3091,-1.3057,-1.306,-1.3168,-1.317,-1.3171,-1.3189,0,0,0,0,0,0,-1.2891,-1.2901,-1.2917,-1.2939,-1.2949,-1.3002,-1.2982,-1.2985,-1.3,-1.2998,-1.3021,-1.3024,-1.3029,-1.3067,-1.3075,-1.3094,-1.3062,-1.3166,-1.3168,-1.3171,-1.3187,-1.3192,-1.3196,0,0,0,0,0,-1.2888,-1.292,-1.2918,-1.2926,-1.297,-1.3003,-1.3008,-1.3014,-1.3001,-1.3017,-1.3028,-1.3023,-1.3088,-1.3071,-1.3079,-1.31,-1.3165,-1.3168,-1.3171,-1.3185,-1.3191,-1.3195,0,0,0,0,0,0,-1.29,-1.2923,-1.2921,-1.2962,-1.298,-1.3001,-1.3022,-1.3019,-1.3041,-1.3039,-1.3044,-1.305,-1.3086,-1.3097,-1.3078,-1.3141,-1.3124,-1.3129,-1.3133,-1.3138,-1.3142,-1.3139,-1.3064,0,0,0,0,0,-1.2907,-1.2932,-1.2952,-1.2986,-1.2995,-1.3007,-1.3022,-1.3024,-1.3043,-1.3051,-1.3065,-1.3083,-1.3108,-1.3124,-1.3147,-1.3189,-1.3193,-1.3207,-1.3211,-1.3215,-1.3218,-1.3241,-1.3247,-1.3182,-1.3182,-1.3182,0,0,-1.2923,-1.2939,-1.2954,-1.2989,-1.3003,-1.3029,-1.3014,-1.3041,-1.306,-1.3055,-1.309,-1.3101,-1.3122,-1.3161,-1.3179,-1.3171,-1.3237,-1.3218,-1.3221,-1.3223,-1.3244,-1.325,-1.3256,-1.3184,-1.3183,-1.3183,0,0,-1.2964,-1.2979,-1.3009,-1.3024,-1.3046,-1.3054,-1.3061,-1.3083,-1.3089,-1.3125,-1.3121,-1.3144,-1.3186,-1.3201,-1.3214,-1.3262,-1.3257,-1.3269,-1.3291,-1.3313,-1.3318,-1.3322,-1.3338,-1.3344,-1.3273,-1.3273,-1.3273,0,-1.298,-1.3019,-1.3024,-1.3053,-1.3067,-1.3064,-1.3094,-1.3109,-1.3138,-1.3148,-1.3139,-1.3192,-1.3206,-1.3248,-1.3259,-1.3271,-1.3278,-1.3266,-1.3317,-1.3321,-1.3326,-1.3341,-1.3347,-1.3274,-1.3274,-1.3274,-1.3274,0,-1.3038,-1.3064,-1.3086,-1.3114,-1.3131,-1.316,-1.317,-1.3187,-1.3188,-1.3197,-1.3232,-1.3249,-1.3276,-1.3286,-1.3288,-1.3329,-1.3323,-1.3315,-1.3298,-1.3333,-1.3347,-1.3353,-1.3276,-1.3276,-1.3275,-1.3275,0,0,-1.3087,-1.3118,-1.3125,-1.3138,-1.3163,-1.3183,-1.3212,-1.3238,-1.3253,-1.3273,-1.3297,-1.3333,-1.3326,-1.3341,-1.3344,-1.3363,-1.3398,-1.3353,-1.3353,-1.336,-1.3444,-1.3449,-1.3456,-1.3396,-1.3397,-1.3398,-1.3442,0,-1.313,-1.3181,-1.3186,-1.3232,-1.3256,-1.3254,-1.3279,-1.3296,-1.3305,-1.3327,-1.3337,-1.3362,-1.3351,-1.336,-1.3379,-1.339,-1.3415,-1.3387,-1.3418,-1.3419,-1.3411,-1.3463,-1.3469,-1.3509,-1.3448,-1.3449,-1.3449,0,-1.3186,-1.3208,-1.3256,-1.3277,-1.3287,-1.331,-1.3334,-1.3355,-1.3375,-1.338,-1.3397,-1.3398,-1.3427,-1.341,-1.345,-1.3431,-1.3444,-1.3451,-1.3453,-1.3455,-1.3435,-1.3466,-1.3522,-1.3528,-1.3458,-1.3458,-1.3457,0,-1.3217,-1.3258,-1.3292,-1.3303,-1.3328,-1.3344,-1.3355,-1.3374,-1.3389,-1.3411,-1.3421,-1.3445,-1.3458,-1.3477,-1.3484,-1.3471,-1.3524,-1.3508,-1.3529,-1.3528,-1.3539,-1.3538,-1.3597,-1.3549,-1.3549,-1.3549,-1.3549,0,-1.3263,-1.3292,-1.3306,-1.3326,-1.3359,-1.3365,-1.3397,-1.3407,-1.3424,-1.3447,-1.3446,-1.3467,-1.3476,-1.3498,-1.3504,-1.3536,-1.3542,-1.3547,-1.3548,-1.3546,-1.3546,-1.3554,-1.3551,-1.355,-1.355,-1.355,-1.3549,0,-1.3302,-1.3312,-1.3349,-1.337,-1.3376,-1.3399,-1.3417,-1.3437,-1.3446,-1.3474,-1.3481,-1.3495,-1.3521,-1.353,-1.3562,-1.3566,-1.3603,-1.3602,-1.3596,-1.3596,-1.3616,-1.3614,-1.3682,-1.3691,-1.3638,-1.3638,-1.3639,0,-1.3331,-1.3353,-1.3377,-1.3392,-1.3404,-1.3428,-1.3444,-1.3451,-1.3468,-1.3492,-1.3509,-1.3535,-1.3556,-1.3598,-1.3611,-1.3635,-1.3634,-1.3657,-1.3638,-1.3636,-1.3634,-1.3632,-1.3634,-1.366,-1.366,-1.3661,-1.3661,0,-1.3381,-1.3385,-1.3407,-1.3432,-1.3451,-1.347,-1.3489,-1.3501,-1.3512,-1.353,-1.3557,-1.3573,-1.3606,-1.3632,-1.3657,-1.3668,-1.3666,-1.3667,-1.3673,-1.3671,-1.3667,-1.3669,-1.3605,-1.3665,-1.3665,-1.3664,-1.3664,-1.3664,-1.3415,-1.3434,-1.3454,-1.3479,-1.3494,-1.3512,-1.3532,-1.3543,-1.3565,-1.3593,-1.3596,-1.3624,-1.3644,-1.3677,-1.369,-1.3712,-1.3706,-1.3715,-1.3717,-1.3719,-1.372,-1.3664,-1.3717,-1.3717,-1.3717,-1.3717,-1.3716,0,-1.3464,-1.3477,-1.35,-1.3526,-1.3546,-1.3543,-1.3564,-1.358,-1.3606,-1.3624,-1.3645,-1.3676,-1.3701,-1.3716,-1.3741,-1.3756,-1.3755,-1.3762,-1.376,-1.3763,-1.3724,-1.3716,-1.3762,-1.3762,-1.3762,-1.3762,-1.3762,-1.3762,-1.3492,-1.3524,-1.3531,-1.3571,-1.3583,-1.3611,-1.3623,-1.364,-1.3654,-1.3688,-1.3709,-1.3719,-1.3736,-1.3762,-1.3785,-1.3788,-1.3797,-1.3804,-1.3807,-1.3771,-1.3766,-1.3761,-1.3754,-1.3806,-1.3806,-1.3844,-1.3844,-1.3844]}]]